Weather History for KWWR - May, 2013

Change the Weather History Date:

Monday, May 13, 2013

  Actual Average (KGAG) Record (KGAG)
Temperature  
Mean Temperature 75 °F -  
Max Temperature 93 °F 77 °F 95 °F (1974)
Min Temperature 57 °F 51 °F 30 °F (1966)
Cooling Degree Days 10    
Growing Degree Days 25 (Base 50)    
Moisture  
Dew Point 38 °F    
Average Humidity 29    
Maximum Humidity 55    
Minimum Humidity 11    
Precipitation  
Precipitation 0.00 in - - ()
Sea Level Pressure  
Sea Level Pressure 30.07 in    
Wind  
Wind Speed 12 mph (SSW)    
Max Wind Speed 20 mph    
Max Gust Speed 24 mph    
Visibility 10 miles    
Events      
Averages and records for this station are not official NWS values.
T = Trace of Precipitation, MM = Missing Value Source: NWS Daily Summary

Daily Weather History Graph

Daily Weather History Graph

Search for Another Location

Airport or City:

Trip Planner

Search our weather history database for the weather conditions in past years. The results will help you decide how hot, cold, wet, or windy it might be!

Date:

Astronomy

May. 13, 2013 Rise Set
Actual Time 6:32 AM CDT 8:36 PM CDT
Civil Twilight 6:04 AM CDT 9:05 PM CDT
Nautical Twilight 5:29 AM CDT 9:40 PM CDT
Astronomical Twilight 4:51 AM CDT 10:17 PM CDT
Moon 9:20 AM CDT (5/13) 11:46 PM CDT (5/13)
Length of Visible Light 15h 01m
Length of Day
14h 03m
Waxing Crescent, 12% of the Moon is Illuminated
May 13
Waxing Crescent
May 17
First Quarter
May 24
Full
May 31
Last Quarter
Jun 8
New

Hourly Weather History & Observations

Time (CDT) Temp. Dew Point Humidity Pressure Visibility Wind Dir Wind Speed Gust Speed Precip Events Conditions
12:15 AM 68.0 °F 41.0 °F 37% 30.09 in 10.0 mi South 15.0 mph - N/A   Clear
12:35 AM 68.0 °F 41.0 °F 37% 30.09 in 10.0 mi South 13.8 mph - N/A   Clear
12:55 AM 66.2 °F 41.0 °F 40% 30.08 in 10.0 mi SSW 12.7 mph - N/A   Clear
1:15 AM 66.2 °F 41.0 °F 40% 30.08 in 10.0 mi SSW 13.8 mph - N/A   Clear
1:35 AM 64.4 °F 41.0 °F 42% 30.08 in 10.0 mi SW 12.7 mph - N/A   Clear
1:55 AM 62.6 °F 41.0 °F 45% 30.08 in 10.0 mi SSW 11.5 mph - N/A   Clear
2:15 AM 62.6 °F 41.0 °F 45% 30.08 in 10.0 mi SW 11.5 mph - N/A   Clear
2:35 AM 60.8 °F 41.0 °F 48% 30.08 in 10.0 mi SSW 12.7 mph - N/A   Clear
2:55 AM 60.8 °F 41.0 °F 48% 30.08 in 10.0 mi SSW 10.4 mph - N/A   Clear
3:15 AM 60.8 °F 41.0 °F 48% 30.07 in 10.0 mi SSW 12.7 mph - N/A   Clear
3:35 AM 60.8 °F 41.0 °F 48% 30.07 in 10.0 mi SSW 11.5 mph - N/A   Clear
3:55 AM 60.8 °F 41.0 °F 48% 30.07 in 10.0 mi SSW 11.5 mph - N/A   Clear
4:15 AM 59.0 °F 41.0 °F 51% 30.07 in 10.0 mi SSW 10.4 mph - N/A   Clear
4:35 AM 59.0 °F 42.8 °F 55% 30.07 in 10.0 mi SSW 11.5 mph - N/A   Clear
4:55 AM 59.0 °F 41.0 °F 51% 30.08 in 10.0 mi SW 9.2 mph - N/A   Clear
5:15 AM 59.0 °F 41.0 °F 51% 30.08 in 10.0 mi SW 10.4 mph - N/A   Clear
5:35 AM 57.2 °F 41.0 °F 55% 30.08 in 10.0 mi SSW 11.5 mph - N/A   Clear
5:55 AM 59.0 °F 41.0 °F 51% 30.08 in 10.0 mi SSW 12.7 mph - N/A   Clear
6:15 AM 59.0 °F 41.0 °F 51% 30.08 in 10.0 mi SSW 12.7 mph - N/A   Clear
6:35 AM 60.8 °F 39.2 °F 45% 30.08 in 10.0 mi SW 15.0 mph - N/A   Clear
6:55 AM 59.0 °F 39.2 °F 48% 30.09 in 10.0 mi SW 12.7 mph - N/A   Clear
7:15 AM 59.0 °F 39.2 °F 48% 30.09 in 10.0 mi SSW 13.8 mph - N/A   Clear
7:35 AM 60.8 °F 41.0 °F 48% 30.10 in 10.0 mi SW 11.5 mph - N/A   Clear
7:55 AM 62.6 °F 41.0 °F 45% 30.10 in 10.0 mi SW 11.5 mph - N/A   Clear
8:15 AM 64.4 °F 41.0 °F 42% 30.11 in 10.0 mi SW 11.5 mph - N/A   Clear
8:35 AM 66.2 °F 41.0 °F 40% 30.12 in 10.0 mi WSW 16.1 mph - N/A   Clear
8:55 AM 68.0 °F 41.0 °F 37% 30.12 in 10.0 mi WSW 12.7 mph - N/A   Clear
9:15 AM 69.8 °F 42.8 °F 38% 30.13 in 10.0 mi SW 9.2 mph - N/A   Clear
9:35 AM 73.4 °F 41.0 °F 31% 30.13 in 10.0 mi West 12.7 mph - N/A   Clear
9:55 AM 77.0 °F 41.0 °F 28% 30.13 in 10.0 mi WSW 15.0 mph 20.7 mph N/A   Clear
10:15 AM 78.8 °F 37.4 °F 23% 30.12 in 10.0 mi WSW 17.3 mph 24.2 mph N/A   Clear
10:35 AM 80.6 °F 37.4 °F 21% 30.12 in 10.0 mi WSW 16.1 mph - N/A   Clear
10:55 AM 82.4 °F 37.4 °F 20% 30.12 in 10.0 mi WSW 13.8 mph 21.9 mph N/A   Clear
11:15 AM 84.2 °F 39.2 °F 20% 30.12 in 10.0 mi WSW 13.8 mph 19.6 mph N/A   Clear
11:35 AM 86.0 °F 37.4 °F 18% 30.12 in 10.0 mi West 13.8 mph 17.3 mph N/A   Clear
11:55 AM 86.0 °F 37.4 °F 18% 30.12 in 10.0 mi West 12.7 mph - N/A   Clear
12:15 PM 87.8 °F 39.2 °F 18% 30.12 in 10.0 mi West 9.2 mph - N/A   Clear
12:35 PM 89.6 °F 37.4 °F 16% 30.11 in 10.0 mi SW 10.4 mph - N/A   Clear
12:55 PM 89.6 °F 35.6 °F 15% 30.11 in 10.0 mi South 6.9 mph - N/A   Clear
1:15 PM 89.6 °F 35.6 °F 15% 30.10 in 10.0 mi SSW 6.9 mph 10.4 mph N/A   Clear
1:35 PM 91.4 °F 32.0 °F 12% 30.09 in 10.0 mi South 9.2 mph 19.6 mph N/A   Clear
1:55 PM 91.4 °F 32.0 °F 12% 30.09 in 10.0 mi South 10.4 mph - N/A   Clear
2:15 PM 91.4 °F 33.8 °F 13% 30.09 in 10.0 mi SW 9.2 mph 16.1 mph N/A   Clear
2:35 PM 91.4 °F 33.8 °F 13% 30.09 in 10.0 mi WSW 12.7 mph 17.3 mph N/A   Clear
3:35 PM 93.2 °F 32.0 °F 11% 30.07 in 10.0 mi South 11.5 mph 16.1 mph N/A   Clear
3:55 PM 93.2 °F 33.8 °F 12% 30.07 in 10.0 mi SW 11.5 mph 17.3 mph N/A   Clear
4:15 PM 93.2 °F 33.8 °F 12% 30.06 in 10.0 mi SW 10.4 mph - N/A   Clear
4:35 PM 93.2 °F 32.0 °F 11% 30.05 in 10.0 mi SW 9.2 mph 16.1 mph N/A   Clear
4:55 PM 93.2 °F 32.0 °F 11% 30.04 in 10.0 mi SSW 8.1 mph 16.1 mph N/A   Clear
5:15 PM 93.2 °F 32.0 °F 11% 30.04 in 10.0 mi SW 10.4 mph 16.1 mph N/A   Clear
5:35 PM 91.4 °F 32.0 °F 12% 30.04 in 10.0 mi SSW 13.8 mph 21.9 mph N/A   Clear
5:55 PM 91.4 °F 32.0 °F 12% 30.03 in 10.0 mi SW 15.0 mph 21.9 mph N/A   Clear
6:55 PM 91.4 °F 32.0 °F 12% 30.02 in 10.0 mi SSW 6.9 mph - N/A   Clear
7:15 PM 89.6 °F 33.8 °F 14% 30.02 in 10.0 mi SSW 9.2 mph - N/A   Clear
7:35 PM 87.8 °F 37.4 °F 17% 30.01 in 10.0 mi SSW 6.9 mph - N/A   Clear
7:55 PM 84.2 °F 39.2 °F 20% 30.01 in 10.0 mi South 8.1 mph - N/A   Clear
8:15 PM 78.8 °F 41.0 °F 26% 30.01 in 10.0 mi South 9.2 mph - N/A   Clear
8:35 PM 77.0 °F 41.0 °F 28% 30.02 in 10.0 mi South 9.2 mph - N/A   Clear
8:55 PM 77.0 °F 37.4 °F 24% 30.02 in 10.0 mi South 10.4 mph - N/A   Clear
9:15 PM 78.8 °F 37.4 °F 23% 30.02 in 10.0 mi South 10.4 mph - N/A   Clear
9:35 PM 78.8 °F 35.6 °F 21% 30.03 in 10.0 mi South 11.5 mph - N/A   Clear
9:55 PM 78.8 °F 35.6 °F 21% 30.03 in 10.0 mi South 13.8 mph - N/A   Clear
10:15 PM 78.8 °F 35.6 °F 21% 30.03 in 10.0 mi South 16.1 mph - N/A   Clear
10:35 PM 77.0 °F 33.8 °F 21% 30.04 in 10.0 mi South 18.4 mph - N/A   Clear
10:55 PM 77.0 °F 33.8 °F 21% 30.04 in 10.0 mi South 17.3 mph - N/A   Clear
11:15 PM 77.0 °F 32.0 °F 19% 30.04 in 10.0 mi South 18.4 mph 24.2 mph N/A   Clear
11:35 PM 77.0 °F 32.0 °F 19% 30.04 in 10.0 mi South 19.6 mph 24.2 mph N/A   Clear
11:55 PM 75.2 °F 32.0 °F 21% 30.04 in 10.0 mi South 19.6 mph 24.2 mph N/A   Clear